Total_Precipitation_Accumulation
0.59 0.42 0.42 0.51 0.49 0.51 0.72 0.80 0.77 0.49 0.38 0.41 0.40 0.41 0.41 0.43 0.44 0.44 0.45 0.50 0.55 0.58 0.62 0.69 0.71 0.71 0.78 0.84 0.85 0.94 1.03 1.00 0.97 1.03 1.05 1.03 1.08 1.13 1.21 1.30 1.31 1.29 1.26 1.28
0.67 0.41 0.38 0.41 0.36 0.37 0.43 0.44 0.44 0.37 0.39 0.38 0.36 0.36 0.34 0.37 0.44 0.46 0.49 0.55 0.58 0.60 0.65 0.74 0.81 0.90 0.97 1.03 1.03 1.07 1.16 1.16 1.04 1.01 1.01 1.04 1.06 1.08 1.11 1.17 1.21 1.20 1.17 1.18
0.99 0.51 0.69 0.75 0.46 0.41 0.41 0.44 0.44 0.47 0.44 0.35 0.33 0.34 0.35 0.37 0.41 0.47 0.50 0.54 0.57 0.60 0.66 0.76 0.90 1.05 1.16 1.14 1.09 1.14 1.18 1.24 1.19 1.06 1.00 1.01 1.01 1.02 1.02 1.04 1.09 1.10 1.11 1.13
1.42 1.00 1.27 0.69 0.35 0.35 0.37 0.41 0.43 0.44 0.40 0.37 0.37 0.34 0.33 0.34 0.38 0.43 0.49 0.55 0.60 0.67 0.69 0.75 0.89 1.03 1.12 1.14 1.12 1.17 1.21 1.19 1.16 1.06 0.96 0.98 1.01 0.98 0.91 0.93 0.99 1.02 1.04 1.07
1.80 1.35 0.76 0.31 0.24 0.35 0.44 0.48 0.44 0.42 0.37 0.34 0.32 0.30 0.32 0.33 0.35 0.41 0.48 0.54 0.62 0.67 0.68 0.72 0.80 0.92 0.98 1.01 0.99 1.04 1.11 1.11 1.08 1.03 0.98 1.01 1.06 1.00 0.91 0.91 0.93 0.93 0.94 0.99
2.00 1.57 0.79 0.35 0.20 0.25 0.41 0.56 0.39 0.37 0.39 0.39 0.40 0.56 0.44 0.37 0.33 0.32 0.35 0.41 0.52 0.61 0.58 0.60 0.69 0.75 0.80 0.85 0.85 0.87 0.93 0.98 1.03 0.98 0.97 1.01 1.07 1.03 0.99 0.96 0.98 1.00 0.98 1.00
1.72 1.49 0.68 0.30 0.18 0.24 0.61 0.71 0.42 0.38 0.41 0.48 0.59 0.66 0.47 0.36 0.32 0.32 0.32 0.35 0.41 0.51 0.59 0.63 0.72 0.75 0.76 0.78 0.81 0.80 0.80 0.84 0.94 0.97 0.96 0.98 1.03 1.06 1.05 1.05 1.07 1.09 1.06 1.03
1.31 1.59 0.85 0.30 0.29 0.54 0.72 0.47 0.39 0.39 0.43 0.53 0.50 0.38 0.33 0.33 0.35 0.32 0.31 0.33 0.40 0.50 0.61 0.69 0.73 0.72 0.70 0.76 0.78 0.74 0.77 0.80 0.85 0.93 0.94 0.96 0.99 0.99 0.98 1.06 1.15 1.16 1.14 1.11
0.97 0.89 0.54 0.41 0.50 0.53 0.49 0.49 0.47 0.55 0.55 0.54 0.50 0.43 0.40 0.38 0.35 0.33 0.33 0.36 0.42 0.51 0.59 0.67 0.68 0.67 0.70 0.76 0.76 0.74 0.77 0.80 0.85 0.91 0.92 0.91 0.92 0.94 0.92 0.95 1.07 1.14 1.15 1.16
0.70 0.52 0.39 0.36 0.33 0.32 0.35 0.45 0.50 0.51 0.53 0.55 0.59 0.52 0.46 0.44 0.43 0.41 0.40 0.41 0.44 0.49 0.57 0.62 0.61 0.64 0.74 0.77 0.77 0.75 0.81 0.85 0.89 0.94 0.98 0.92 0.87 0.88 0.90 0.97 1.14 1.25 1.22 1.19
0.53 0.40 0.34 0.32 0.32 0.33 0.36 0.36 0.36 0.36 0.40 0.52 0.60 0.55 0.47 0.46 0.49 0.50 0.50 0.49 0.49 0.54 0.61 0.60 0.55 0.57 0.70 0.78 0.80 0.80 0.81 0.87 0.92 0.96 0.98 0.95 0.90 0.90 0.95 0.99 1.24 1.53 1.48 1.43
0.49 0.38 0.40 0.38 0.34 0.35 0.38 0.38 0.38 0.39 0.41 0.43 0.47 0.49 0.44 0.46 0.49 0.50 0.53 0.55 0.54 0.53 0.54 0.55 0.52 0.53 0.62 0.72 0.78 0.81 0.81 0.84 0.91 0.98 1.01 0.96 0.91 0.93 0.97 1.00 1.12 1.16 1.20 1.33
0.40 0.33 0.34 0.33 0.30 0.30 0.34 0.37 0.40 0.42 0.42 0.39 0.38 0.41 0.45 0.49 0.50 0.50 0.52 0.53 0.53 0.51 0.53 0.55 0.54 0.54 0.62 0.70 0.76 0.80 0.84 0.86 0.90 0.93 0.96 0.96 0.92 0.89 0.93 0.94 0.97 1.00 1.03 1.10
0.29 0.30 0.33 0.28 0.27 0.26 0.27 0.29 0.32 0.35 0.36 0.33 0.34 0.36 0.40 0.46 0.46 0.44 0.47 0.48 0.49 0.50 0.51 0.54 0.53 0.54 0.60 0.66 0.70 0.77 0.83 0.89 0.91 0.94 0.96 0.95 0.94 0.92 0.89 0.90 0.94 0.97 0.97 1.00
0.23 0.28 0.33 0.28 0.24 0.24 0.25 0.26 0.28 0.29 0.29 0.30 0.30 0.34 0.37 0.42 0.45 0.47 0.46 0.44 0.45 0.46 0.50 0.51 0.50 0.53 0.55 0.59 0.63 0.68 0.75 0.82 0.87 0.92 0.94 0.93 0.93 0.92 0.90 0.88 0.89 0.93 0.94 0.99
0.23 0.24 0.24 0.25 0.27 0.29 0.28 0.27 0.30 0.30 0.28 0.30 0.31 0.32 0.35 0.38 0.40 0.42 0.43 0.42 0.42 0.47 0.51 0.51 0.52 0.53 0.55 0.57 0.60 0.63 0.69 0.81 0.88 0.89 0.90 0.92 0.94 0.94 0.94 0.95 0.94 0.93 0.97 1.05
0.30 0.29 0.29 0.32 0.31 0.33 0.36 0.36 0.34 0.32 0.27 0.26 0.27 0.29 0.30 0.31 0.33 0.35 0.39 0.42 0.43 0.47 0.51 0.53 0.54 0.51 0.52 0.55 0.61 0.65 0.68 0.73 0.81 0.84 0.87 0.90 0.95 0.99 1.00 1.02 1.02 0.98 0.97 1.01
0.35 0.37 0.39 0.43 0.42 0.40 0.38 0.35 0.32 0.30 0.29 0.28 0.28 0.29 0.30 0.31 0.33 0.35 0.37 0.39 0.39 0.41 0.45 0.51 0.54 0.51 0.50 0.54 0.64 0.67 0.71 0.75 0.78 0.82 0.85 0.91 0.99 1.00 1.00 1.02 1.00 0.97 0.95 0.97
0.31 0.34 0.36 0.39 0.42 0.43 0.41 0.37 0.34 0.34 0.34 0.33 0.34 0.35 0.36 0.36 0.37 0.38 0.37 0.37 0.37 0.40 0.43 0.46 0.49 0.46 0.47 0.54 0.68 0.72 0.76 0.79 0.79 0.79 0.82 0.92 0.96 0.93 0.96 0.99 0.99 0.96 0.94 0.95
0.32 0.33 0.35 0.37 0.38 0.39 0.39 0.35 0.33 0.35 0.37 0.38 0.39 0.40 0.40 0.41 0.41 0.42 0.41 0.41 0.45 0.50 0.47 0.48 0.46 0.46 0.51 0.59 0.74 0.78 0.81 0.83 0.84 0.83 0.84 0.87 0.90 0.91 0.93 0.96 0.97 0.98 0.96 0.97
0.37 0.36 0.37 0.37 0.36 0.35 0.35 0.35 0.34 0.36 0.38 0.39 0.40 0.43 0.44 0.45 0.44 0.43 0.42 0.44 0.47 0.48 0.47 0.47 0.48 0.60 0.70 0.79 0.83 0.82 0.82 0.83 0.86 0.88 0.90 0.92 0.93 0.91 0.92 0.95 0.98 0.98 0.98 0.97
0.38 0.39 0.40 0.39 0.35 0.36 0.37 0.37 0.37 0.38 0.39 0.40 0.41 0.43 0.45 0.46 0.45 0.46 0.47 0.51 0.56 0.57 0.53 0.51 0.62 0.85 0.91 0.90 0.82 0.82 0.82 0.81 0.83 0.86 0.92 0.96 1.00 1.01 0.98 0.99 1.04 1.02 1.00 1.01
0.40 0.42 0.43 0.42 0.40 0.40 0.40 0.41 0.41 0.42 0.42 0.42 0.43 0.45 0.47 0.50 0.49 0.51 0.60 0.60 0.59 0.62 0.58 0.62 0.78 0.89 0.89 0.82 0.78 0.79 0.81 0.83 0.85 0.89 0.93 0.98 1.02 1.06 1.08 1.06 1.04 1.05 1.07 1.07
0.48 0.49 0.50 0.48 0.43 0.40 0.44 0.47 0.46 0.46 0.47 0.48 0.50 0.51 0.51 0.52 0.54 0.54 0.61 0.64 0.63 0.63 0.61 0.69 0.78 0.81 0.78 0.75 0.75 0.78 0.82 0.88 0.94 0.96 0.96 0.99 1.00 1.04 1.09 1.10 1.10 1.06 1.07 1.08
0.54 0.54 0.52 0.49 0.47 0.48 0.52 0.52 0.50 0.49 0.48 0.50 0.53 0.54 0.53 0.53 0.59 0.61 0.59 0.60 0.61 0.61 0.63 0.67 0.70 0.71 0.68 0.71 0.75 0.80 0.86 0.94 1.03 1.07 1.06 1.05 1.03 1.05 1.07 1.11 1.15 1.15 1.12 1.10
0.58 0.58 0.57 0.55 0.54 0.54 0.54 0.52 0.53 0.53 0.51 0.51 0.53 0.53 0.53 0.54 0.55 0.56 0.57 0.59 0.59 0.59 0.61 0.62 0.63 0.65 0.67 0.70 0.74 0.80 0.88 0.93 0.96 0.96 0.95 0.97 0.98 1.01 1.05 1.09 1.12 1.14 1.15 1.12
0.57 0.55 0.51 0.49 0.49 0.49 0.51 0.51 0.54 0.57 0.56 0.55 0.57 0.55 0.52 0.51 0.52 0.53 0.54 0.57 0.60 0.60 0.61 0.63 0.65 0.67 0.70 0.71 0.75 0.80 0.84 0.88 0.91 0.95 0.95 0.95 0.97 1.01 1.04 1.08 1.11 1.11 1.12 1.12